La Junta, CO

11:46 PM MST on November 11, 2019 (GMT -0700)
La Junta Municipal

Weather History for KLHX - October, 2019

Change the Weather History Date:

Sunday, October 20, 2019

  Actual Average Record
Temperature  
Mean Temperature 47 °F -  
Max Temperature 63 °F 68 °F 91 °F (1947)
Min Temperature 31 °F 37 °F 24 °F (1976)
Degree Days  
Heating Degree Days 18 13  
Month to date heating degree days 208 186  
Since 1 July heating degree days 210 259  
Cooling Degree Days 0 0  
Moisture  
Dew Point 8 °F    
Average Humidity 19    
Maximum Humidity 45    
Minimum Humidity 8    
Precipitation  
Precipitation 0.00 in 0.03 in 1.34 in (1990)
Month to date precipitation 0.01 0.60  
Year to date precipitation 5.84 10.51  
Sea Level Pressure  
Sea Level Pressure 29.62 in    
Wind  
Wind Speed 14 mph ()    
Max Wind Speed 36 mph    
Max Gust Speed 48 mph    
Visibility 10.0 miles    
Events      
T = Trace of Precipitation, MM = Missing Value Source: Averaged Metar Reports

Daily Weather History Graph

Daily Weather History Graph

Search for Another Location

Airport or City:

Astronomy

Oct. 20, 2019 Rise Set
Actual Time 7:07 AM MDT 6:09 PM MDT
Civil Twilight 6:40 AM MDT 6:36 PM MDT
Nautical Twilight 6:09 AM MDT 7:07 PM MDT
Astronomical Twilight 5:39 AM MDT 7:37 PM MDT
Moon 11:24 PM MDT (10/20) 1:33 PM MDT (10/20)
Length of Visible Light 11h 55m
Length of Day
11h 02m
Waning Gibbous, 58% of the Moon is Illuminated
Oct 20
Waning Gibbous
Oct 21
Last Quarter
Oct 27
New
Nov 4
First Quarter
Nov 12
Full

Hourly Weather History & Observations

Time (MDT) Temp. Windchill Dew Point Humidity Pressure Visibility Wind Dir Wind Speed Gust Speed Precip Events Conditions
12:53 AM 55.9 °F - 9.0 °F 15% 29.49 in 10.0 mi SW 15.0 mph - N/A   Clear
1:53 AM 52.0 °F - 9.0 °F 18% 29.46 in 10.0 mi SW 11.5 mph - N/A   Clear
2:53 AM 53.1 °F - 8.1 °F 16% 29.43 in 10.0 mi SW 13.8 mph - N/A   Clear
3:53 AM 54.0 °F - 9.0 °F 17% 29.41 in 10.0 mi SW 13.8 mph - N/A   Clear
4:53 AM 55.0 °F - 9.0 °F 16% 29.40 in 10.0 mi SW 15.0 mph - N/A   Clear
5:53 AM 54.0 °F - 9.0 °F 17% 29.44 in 10.0 mi SW 11.5 mph - N/A   Clear
6:53 AM 44.1 °F 37.4 °F 16.0 °F 32% 29.56 in 10.0 mi North 13.8 mph - N/A   Clear
7:53 AM 44.1 °F 38.1 °F 24.1 °F 45% 29.59 in 10.0 mi North 11.5 mph - N/A   Clear
8:53 AM 52.0 °F - 21.9 °F 31% 29.63 in 10.0 mi North 11.5 mph - N/A   Clear
9:53 AM 55.9 °F - 19.9 °F 25% 29.64 in 10.0 mi North 6.9 mph - N/A   Clear
10:53 AM 60.1 °F - 19.0 °F 20% 29.63 in 10.0 mi WNW 24.2 mph 33.4 mph N/A   Clear
11:53 AM 57.0 °F - 1.9 °F 11% 29.62 in 10.0 mi West 26.5 mph 40.3 mph N/A   Overcast
12:53 PM 61.0 °F - -0.0 °F 9% 29.58 in 10.0 mi WNW 34.5 mph 46.0 mph N/A   Clear
1:53 PM 62.1 °F - -0.0 °F 8% 29.59 in 10.0 mi West 26.5 mph 42.6 mph N/A   Clear
2:53 PM 61.0 °F - -2.0 °F 8% 29.61 in 10.0 mi WNW 27.6 mph 41.4 mph N/A   Clear
3:53 PM 61.0 °F - -0.9 °F 8% 29.61 in 10.0 mi West 21.9 mph 35.7 mph N/A   Clear
4:53 PM 60.1 °F - 1.0 °F 9% 29.64 in 10.0 mi West 25.3 mph 35.7 mph N/A   Clear
5:53 PM 55.9 °F - 1.9 °F 11% 29.69 in 10.0 mi NW 15.0 mph 31.1 mph N/A   Clear
6:53 PM 46.9 °F - 5.0 °F 18% 29.78 in 10.0 mi NNW 9.2 mph - N/A   Clear
7:53 PM 46.0 °F 41.9 °F 6.1 °F 20% 29.82 in 10.0 mi NW 8.1 mph - N/A   Clear
8:53 PM 43.0 °F 36.8 °F 6.1 °F 22% 29.82 in 10.0 mi WSW 11.5 mph - N/A   Clear
9:53 PM 43.0 °F 39.5 °F 6.1 °F 22% 29.81 in 10.0 mi West 5.8 mph - N/A   Clear
10:53 PM 39.0 °F 32.3 °F 3.9 °F 23% 29.83 in 10.0 mi WSW 10.4 mph - N/A   Clear
11:53 PM 37.9 °F 30.5 °F 3.9 °F 24% 29.83 in 10.0 mi West 11.5 mph - N/A   Clear